NOAA 16 DEB

Satellite information

Favourite Embed

Satellite Type and Status

DEBRISIN ORBIT

Key statistics

Satellite NOAA 16 DEB at a glance.

Uptime

9219

Days in orbit

Revolutions

≈ 14.1

Per day

Orbit

SSO

Sun Synchronous Orbit

Inclination

98.6

Latest

Satellite identification and parameters

Extended collection of information and parameters for NOAA 16 DEB.

Object identification

Identified? True

Debris? True

Object name: NOAA 16 DEB

International designator: 2000-055K

Object number (NORAD): 41052

Object ID (CCSDS): 41052

Country: UNITED STATES OF AMERICA (US)

Current information (Y/N): Y

RCS size: SMALL

Orbital parameters

Period: 102.244 minutes

Inclination: 98.6095 deg

SMA: 7243.002 km

Apoapsis: 982.851 km

Periapsis: 746.883 km

RAAN: 6.2056 deg

Eccentricy: 0.01628933

Argument of periapsis: 345.0927 deg

Mean anomaly: 14.5472 deg

Mean motion: 14.08396274 rev/day

Mean motion (dot): 0.00000901 rev/day2

B* drag term: 0.00048769308 1/REarth

Two-line elements (TLE)

Creation date: Dec. 18, 2025, 2:19 a.m.

Reference frame: TEME

Reference center: EARTH

Epoch: Dec. 17, 2025, 6:10 p.m. UTC

TLE line 0: 0 NOAA 16 DEB

TLE line 1: 1 41052U 00055K 25351.75753019 .00000901 00000-0 48769-3 0 9992

TLE line 2: 2 41052 98.6095 6.2056 0162893 345.0927 14.5472 14.08396274516165

Live tracking on map

Real-time ground track for satellite NOAA 16 DEB.

In-orbit conjunctions

A list of the most updated potential collisions computed for object NOAA 16 DEB.

Target Orbit TCA Probability of collision Miss distance Type
THORAD AGENA D R/B LEO 2025-04-19 06:11:37 0.0004849766 80.0 (m) ROCKET BODY
COSMOS 1579 LEO 2024-10-08 15:30:43 0.0001630714 593.0 (m) PAYLOAD

Associated space launch

The NOAA K, L and M POES satellites begin the fifth generation of improved environmental monitoring in support of NOAA missions. The instrument payload has significant improvements and additions/deletions. The instrument changes have effected the spacecraft subsystems and data formats.

NOAA 16 DEB was lifted into orbit during the mission ‘Titan II SLV | NOAA 16’, on board a Titan II SLV space rocket.

The launch took place on Sept. 21, 2000, 10:22 a.m. from Space Launch Complex 4W.

For more information about the launch, click the button.

Launch to space Titan II SLV | NOAA 16
Titan II SLV | NOAA 16

Agency: N/A

Status: Launch Successful

Launch date: Sept. 21, 2000, 10:22 a.m. UTC

Rocket: Titan II SLV

Launch pad: Space Launch Complex 4W

Location: Vandenberg SFB, CA, USA

...

Latest news about this satellite

There are no fresh news available about this satellite. Check back as we update our databases every day.


Newsletter sign-up

Weekly statistics, charts and insights to help you stay on top of the space industry.